Погода в Очеретоватом

Украина / Днепропетровская область     48°43′04″N   35°00′11″E
темп.,
°C
ветер,
м/с
пор.,
м/с
влажн.,
%
обл.,
%
осадки,
мм/ч
давл.,
гПа
погр.,
м
31 июля, сб
сб3100:00+24сз4105341 0.0 1009264
03:00+20ссз35650 0.0 101079
06:00+19с33690 0.0 101039
09:00+25с22550 0.0 1011479
12:00+29с23400 0.0 10112110
15:00+31ссз22359 0.0 10102362
18:00+30с12361 0.0 10101875
21:00+25з224622 0.0 101111
1 августа, вс
вс100:00+23сз00520 0.0 101211
03:00+22з11560 0.0 101211
06:00+21ссз11610 0.0 101211
09:00+27юв22460 0.0 1012355
12:00+31ююв22340 0.0 10122158
15:00+33вюв223022 0.0 10112667
18:00+32вюв223419 0.0 10111245
21:00+26ю33442 0.0 101126
2 августа, пн
пн200:00+24юз33480 0.0 101128
03:00+23ю225289 0.0 101121
06:00+22юз22581 0.0 101216
09:00+29ююз34435 0.0 1011363
12:00+33ююз34313 0.0 10111994
15:00+35ююз44280 0.0 10092074
18:00+33ююз57335 0.0 1008716
21:00+27ююз41043100 0.1 1009153
3 августа, вт
вт300:00+23сз477499 1.6 1009146
03:00+20з11845 1.6 100912
06:00+20сз24893 0.0 1011112
09:00+23сз56739 0.1 1012711
12:00+27сз564546 0.0 10131457
15:00+28сз45350 0.0 10122046
18:00+27ссз45371 0.0 10132167
21:00+22ссз3550100 0.0 101578
4 августа, ср
ср400:00+19с346114 0.0 101651
03:00+18ссв22635 0.0 101715
06:00+17вюв11650 0.0 101811
09:00+24ююв11475 0.0 1018411
12:00+27ю123780 0.0 10182093
15:00+28ююв22339 0.0 10172214
18:00+28вюв2235100 0.0 10161440
21:00+23юв344598 0.0 101547